Location: Newark
(6.9530°N, 126.2160°E)
Time: 03:37:03
(UTC+00:00)

Envisat - Visible Passes

Search period start: 27 January 2020 00:00
Search period end: 06 February 2020 00:00
Orbit: 764 x 766 km, 98.1° (Epoch: 26 January)

Date Brightness Start Highest point End Pass type
(mag) Time Alt. Az. Time Alt. Az. Time Alt. Az.
27 Jan 6.5 11:07:15 10° WSW 11:08:04 10° W 11:08:53 10° W visible
28 Jan 5.1 10:26:55 10° SSW 10:31:21 31° W 10:35:47 10° NW visible
28 Jan 5.5 21:15:34 10° NE 21:19:48 27° E 21:24:02 10° SSE visible
30 Jan 6.2 10:54:02 10° SW 10:56:47 15° W 10:59:34 10° WNW visible
31 Jan 4.5 10:15:19 10° S 10:20:05 42° WSW 10:24:50 10° NNW visible
31 Jan 6.0 21:04:53 10° NE 21:08:31 20° E 21:12:09 10° SSE visible
02 Feb 5.8 10:41:51 10° SSW 10:45:31 20° W 10:49:11 10° NW visible
02 Feb 4.6 21:29:13 10° NNE 21:33:57 41° E 21:38:43 10° S visible
03 Feb 3.8 10:03:50 10° S 10:08:48 57° WSW 10:13:47 10° NNW visible
03 Feb 6.3 20:54:32 10° ENE 20:57:15 14° E 20:59:57 10° SE visible
05 Feb 5.3 10:30:00 10° SSW 10:34:14 27° W 10:38:30 10° NW visible
05 Feb 5.3 21:18:17 10° NE 21:22:41 30° E 21:27:05 10° SSE visible
